,,,PA_Meas_PMT16A,,PR_Meas_QMR101_102,,RH_Meas_QMH101,,SR_Meas_QMS101,,TA_Meas_QMH101,,GenWind,,GenWind,
date,time,status,PA,status,PR,status,RH,status,SR,status,TA,status,DirAvg,status,SpdAvg,
2008-11-21, 00:00:05,VALID,1002.68,VALID,0,VALID,95.3076,VALID,0,VALID,24.2875,VALID,347,VALID,0.0542969,
2008-11-21, 00:01:05,VALID,1002.67,VALID,0,VALID,95.2695,VALID,0,VALID,24.2681,VALID,347,VALID,0.00117188,
2008-11-21, 00:02:05,VALID,1002.66,VALID,0,VALID,95.2771,VALID,0,VALID,24.2486,VALID,347,VALID,0,
2008-11-21, 00:03:05,VALID,1002.65,VALID,0,VALID,95.2618,VALID,0,VALID,24.2291,VALID,347,VALID,0,
2008-11-21, 00:04:05,VALID,1002.65,VALID,0,VALID,95.2618,VALID,0,VALID,24.2504,VALID,347,VALID,0,
2008-11-21, 00:05:05,VALID,1002.63,VALID,0,VALID,95.2847,VALID,0,VALID,24.231,VALID,347,VALID,0,
2008-11-21, 00:06:05,VALID,1002.63,VALID,0,VALID,95.3,VALID,0,VALID,24.231,VALID,347,VALID,0,
2008-11-21, 00:07:05,VALID,1002.57,VALID,0,VALID,95.3,VALID,0,VALID,24.2097,VALID,347,VALID,0,
2008-11-21, 00:08:05,VALID,1002.57,VALID,0,VALID,95.3305,VALID,0,VALID,24.2097,VALID,347,VALID,0,
2008-11-21, 00:09:05,VALID,1002.54,VALID,0,VALID,95.3076,VALID,0,VALID,24.2097,VALID,347,VALID,0,
2008-11-21, 00:10:05,VALID,1002.52,VALID,0,VALID,95.3305,VALID,0,VALID,24.1902,VALID,347,VALID,0,
2008-11-21, 00:11:05,VALID,1002.49,VALID,0,VALID,95.3381,VALID,0,VALID,24.2097,VALID,347,VALID,0.0195313,
2008-11-21, 00:12:05,VALID,1002.45,VALID,0,VALID,95.3534,VALID,0,VALID,24.1902,VALID,347,VALID,0.00273437,
2008-11-21, 00:13:05,VALID,1002.43,VALID,0,VALID,95.3686,VALID,0,VALID,24.2097,VALID,348,VALID,0.316016,
2008-11-21, 00:14:05,VALID,1002.41,VALID,0,VALID,95.3915,VALID,0,VALID,24.2291,VALID,25,VALID,0.383203,
2008-11-21, 00:15:05,VALID,1002.42,VALID,0,VALID,95.4068,VALID,0,VALID,24.2486,VALID,48,VALID,0.367188,
2008-11-21, 00:16:05,VALID,1002.36,VALID,0,VALID,95.4144,VALID,0,VALID,24.2681,VALID,48,VALID,0.277734,
2008-11-21, 00:17:05,VALID,1002.39,VALID,0,VALID,95.4449,VALID,0,VALID,24.2681,VALID,50,VALID,0.312109,
2008-11-21, 00:18:05,VALID,1002.39,VALID,0,VALID,95.4373,VALID,0,VALID,24.2875,VALID,50,VALID,0.0773437,
2008-11-21, 00:19:05,VALID,1002.34,VALID,0,VALID,95.4602,VALID,0,VALID,24.307,VALID,50,VALID,0.337891,
2008-11-21, 00:20:05,VALID,1002.32,VALID,0,VALID,95.4678,VALID,0,VALID,24.307,VALID,50,VALID,0.348047,
2008-11-21, 00:21:05,VALID,1002.3,VALID,0,VALID,95.4373,VALID,0,VALID,24.3283,VALID,50,VALID,0.163672,
2008-11-21, 00:22:05,VALID,1002.3,VALID,0,VALID,95.4144,VALID,0,VALID,24.307,VALID,50,VALID,0.214062,
2008-11-21, 00:23:05,VALID,1002.31,VALID,0,VALID,95.422,VALID,0,VALID,24.2857,VALID,50,VALID,0.153516,
2008-11-21, 00:24:05,VALID,1002.3,VALID,0,VALID,95.4068,VALID,0,VALID,24.2681,VALID,50,VALID,0.360938,
2008-11-21, 00:25:05,VALID,1002.28,VALID,0,VALID,95.3763,VALID,0,VALID,24.2681,VALID,50,VALID,0.608594,
2008-11-21, 00:26:05,VALID,1002.27,VALID,0,VALID,95.3381,VALID,0,VALID,24.2699,VALID,50,VALID,0.308594,
2008-11-21, 00:27:05,VALID,1002.31,VALID,0,VALID,95.3152,VALID,0,VALID,24.231,VALID,50,VALID,0.2125,
2008-11-21, 00:28:05,VALID,1002.31,VALID,0,VALID,95.2618,VALID,0,VALID,24.192,VALID,50,VALID,0,
2008-11-21, 00:29:05,VALID,1002.31,VALID,0,VALID,95.2618,VALID,0,VALID,24.1531,VALID,50,VALID,0.130859,
2008-11-21, 00:30:05,VALID,1002.31,VALID,0,VALID,95.3,VALID,0,VALID,24.1336,VALID,50,VALID,0.075,
2008-11-21, 00:31:05,VALID,1002.27,VALID,0,VALID,95.3763,VALID,0,VALID,24.1531,VALID,50,VALID,0,
2008-11-21, 00:32:05,VALID,1002.29,VALID,0,VALID,95.422,VALID,0,VALID,24.1726,VALID,50,VALID,0.110937,
2008-11-21, 00:33:05,VALID,1002.27,VALID,0,VALID,95.4449,VALID,0,VALID,24.192,VALID,50,VALID,0.417969,
2008-11-21, 00:34:05,VALID,1002.27,VALID,0,VALID,95.4602,VALID,0,VALID,24.231,VALID,51,VALID,0.385938,
2008-11-21, 00:35:05,VALID,1002.27,VALID,0,VALID,95.4754,VALID,0,VALID,24.2504,VALID,51,VALID,0.246094,
2008-11-21, 00:36:05,VALID,1002.26,VALID,0,VALID,95.4678,VALID,0,VALID,24.2504,VALID,51,VALID,0.201953,
2008-11-21, 00:37:05,VALID,1002.26,VALID,0,VALID,95.4526,VALID,0,VALID,24.2504,VALID,51,VALID,0.266016,
2008-11-21, 00:38:05,VALID,1002.24,VALID,0,VALID,95.422,VALID,0,VALID,24.2523,VALID,51,VALID,0.351953,
2008-11-21, 00:39:05,VALID,1002.25,VALID,0,VALID,95.3457,VALID,0,VALID,24.231,VALID,51,VALID,0.250781,
2008-11-21, 00:40:05,VALID,1002.24,VALID,0,VALID,95.3305,VALID,0,VALID,24.2097,VALID,51,VALID,0.319141,
2008-11-21, 00:41:05,VALID,1002.23,VALID,0,VALID,95.3686,VALID,0,VALID,24.1494,VALID,51,VALID,0.425391,
2008-11-21, 00:42:05,VALID,1002.22,VALID,0,VALID,95.4831,VALID,0,VALID,24.1902,VALID,356,VALID,0.528516,
2008-11-21, 00:43:05,VALID,1002.23,VALID,0,VALID,95.5136,VALID,0,VALID,24.2291,VALID,355,VALID,0.690625,
2008-11-21, 00:44:05,VALID,1002.19,VALID,0,VALID,95.5212,VALID,0,VALID,24.2681,VALID,353,VALID,0.273828,
2008-11-21, 00:45:05,VALID,1002.19,VALID,0,VALID,95.5517,VALID,0,VALID,24.2875,VALID,355,VALID,0.330859,
2008-11-21, 00:46:05,VALID,1002.19,VALID,0,VALID,95.5136,VALID,0,VALID,24.2875,VALID,355,VALID,0.334766,
2008-11-21, 00:47:05,VALID,1002.15,VALID,0,VALID,95.5136,VALID,0,VALID,24.307,VALID,355,VALID,0.170703,
2008-11-21, 00:48:05,VALID,1002.12,VALID,0,VALID,95.5136,VALID,0,VALID,24.307,VALID,355,VALID,0.301172,
2008-11-21, 00:49:05,VALID,1002.12,VALID,0,VALID,95.4602,VALID,0,VALID,24.307,VALID,355,VALID,0.357031,
2008-11-21, 00:50:05,VALID,1002.08,VALID,0,VALID,95.4678,VALID,0,VALID,24.2875,VALID,355,VALID,0.332031,
2008-11-21, 00:51:05,VALID,1002.07,VALID,0,VALID,95.5288,VALID,0,VALID,24.2875,VALID,354,VALID,0.240625,
2008-11-21, 00:52:05,VALID,1002.02,VALID,0,VALID,95.506,VALID,0,VALID,24.307,VALID,354,VALID,0.403906,
2008-11-21, 00:53:05,VALID,1002.05,VALID,0,VALID,95.5517,VALID,0,VALID,24.2875,VALID,354,VALID,0.286328,
2008-11-21, 00:54:05,VALID,1002.01,VALID,0,VALID,95.5136,VALID,0,VALID,24.3265,VALID,354,VALID,0.35,
2008-11-21, 00:55:05,VALID,1002,VALID,0,VALID,95.5136,VALID,0,VALID,24.307,VALID,354,VALID,0.368359,
2008-11-21, 00:56:05,VALID,1002.01,VALID,0,VALID,95.4907,VALID,0,VALID,24.3283,VALID,354,VALID,0.303906,
2008-11-21, 00:57:05,VALID,1002,VALID,0,VALID,95.4907,VALID,0,VALID,24.307,VALID,354,VALID,0.164844,
2008-11-21, 00:58:05,VALID,1002.02,VALID,0,VALID,95.506,VALID,0,VALID,24.307,VALID,354,VALID,0.0046875,
2008-11-21, 00:59:05,VALID,1002.01,VALID,0,VALID,95.5212,VALID,0,VALID,24.307,VALID,354,VALID,0,
2008-11-21, 01:00:05,VALID,1002,VALID,0,VALID,95.5136,VALID,0,VALID,24.307,VALID,354,VALID,0,
2008-11-21, 01:01:05,VALID,1001.98,VALID,0,VALID,95.5212,VALID,0,VALID,24.3265,VALID,354,VALID,0,
2008-11-21, 01:02:05,VALID,1001.95,VALID,0,VALID,95.5594,VALID,0,VALID,24.3265,VALID,354,VALID,0,
2008-11-21, 01:03:04,VALID,1001.91,VALID,0,VALID,95.5594,VALID,0,VALID,24.3459,VALID,354,VALID,0,
2008-11-21, 01:04:04,VALID,1001.91,VALID,0,VALID,95.5746,VALID,0,VALID,24.3654,VALID,354,VALID,0,
2008-11-21, 01:05:04,VALID,1001.84,VALID,0,VALID,95.567,VALID,0,VALID,24.3654,VALID,354,VALID,0,
2008-11-21, 01:06:04,VALID,1001.82,VALID,0,VALID,95.5517,VALID,0,VALID,24.3654,VALID,354,VALID,0.283594,
2008-11-21, 01:07:04,VALID,1001.8,VALID,0,VALID,95.5594,VALID,0,VALID,24.3849,VALID,354,VALID,0.15,
2008-11-21, 01:08:04,VALID,1001.74,VALID,0,VALID,95.5441,VALID,0,VALID,24.3654,VALID,354,VALID,0.204688,
2008-11-21, 01:09:04,VALID,1001.71,VALID,0,VALID,95.5365,VALID,0,VALID,24.3849,VALID,354,VALID,0,
2008-11-21, 01:10:04,VALID,1001.67,VALID,0,VALID,95.5212,VALID,0,VALID,24.3459,VALID,354,VALID,0,
2008-11-21, 01:11:04,VALID,1001.64,VALID,0,VALID,95.5288,VALID,0,VALID,24.3459,VALID,354,VALID,0,
2008-11-21, 01:12:04,VALID,1001.61,VALID,0,VALID,95.5288,VALID,0,VALID,24.3654,VALID,354,VALID,0,
2008-11-21, 01:13:04,VALID,1001.58,VALID,0,VALID,95.5746,VALID,0,VALID,24.3654,VALID,354,VALID,0,
2008-11-21, 01:14:04,VALID,1001.55,VALID,0,VALID,95.6051,VALID,0,VALID,24.3441,VALID,354,VALID,0,
2008-11-21, 01:15:04,VALID,1001.52,VALID,0,VALID,95.5594,VALID,0,VALID,24.3654,VALID,354,VALID,0.0375,
2008-11-21, 01:16:04,VALID,1001.51,VALID,0,VALID,95.5441,VALID,0,VALID,24.3636,VALID,354,VALID,0.166797,
2008-11-21, 01:17:04,VALID,1001.48,VALID,0,VALID,95.6433,VALID,0,VALID,24.3849,VALID,354,VALID,0.0746094,
2008-11-21, 01:18:04,VALID,1001.46,VALID,0,VALID,95.6662,VALID,0,VALID,24.4043,VALID,354,VALID,0.450391,
2008-11-21, 01:19:04,VALID,1001.46,VALID,0,VALID,95.6356,VALID,0,VALID,24.4043,VALID,354,VALID,0.340625,
2008-11-21, 01:20:04,VALID,1001.43,VALID,0,VALID,95.6356,VALID,0,VALID,24.3849,VALID,354,VALID,0.367188,
2008-11-21, 01:21:04,VALID,1001.41,VALID,0,VALID,95.6051,VALID,0,VALID,24.3849,VALID,354,VALID,0.379687,
2008-11-21, 01:22:04,VALID,1001.42,VALID,0,VALID,95.5975,VALID,0,VALID,24.3654,VALID,354,VALID,0.375,
2008-11-21, 01:23:04,VALID,1001.43,VALID,0,VALID,95.6051,VALID,0.100563,VALID,24.3654,VALID,354,VALID,0.436328,
2008-11-21, 01:24:04,VALID,1001.42,VALID,0,VALID,95.6204,VALID,0.100563,VALID,24.3459,VALID,354,VALID,0.516406,
2008-11-21, 01:25:04,VALID,1001.4,VALID,0,VALID,95.6128,VALID,0,VALID,24.3441,VALID,354,VALID,0.421484,
2008-11-21, 01:26:04,VALID,1001.4,VALID,0,VALID,95.5899,VALID,0,VALID,24.3459,VALID,353,VALID,0.369922,
2008-11-21, 01:27:04,VALID,1001.41,VALID,0,VALID,95.5822,VALID,0,VALID,24.3052,VALID,353,VALID,0.434375,
2008-11-21, 01:28:04,VALID,1001.42,VALID,0,VALID,95.5975,VALID,0,VALID,24.3265,VALID,353,VALID,0.413672,
2008-11-21, 01:29:04,VALID,1001.4,VALID,0,VALID,95.6128,VALID,0,VALID,24.3265,VALID,353,VALID,0.466016,
2008-11-21, 01:30:04,VALID,1001.4,VALID,0,VALID,95.6204,VALID,0,VALID,24.3265,VALID,353,VALID,0.459766,
2008-11-21, 01:31:04,VALID,1001.37,VALID,0,VALID,95.628,VALID,0,VALID,24.3265,VALID,353,VALID,0.474609,
2008-11-21, 01:32:04,VALID,1001.34,VALID,0,VALID,95.628,VALID,0,VALID,24.307,VALID,353,VALID,0.392188,
2008-11-21, 01:33:04,VALID,1001.33,VALID,0,VALID,95.6356,VALID,0,VALID,24.3265,VALID,352,VALID,0.358594,
2008-11-21, 01:34:04,VALID,1001.32,VALID,0,VALID,95.6356,VALID,0.100563,VALID,24.307,VALID,352,VALID,0.526953,
2008-11-21, 01:35:04,VALID,1001.27,VALID,0,VALID,95.6433,VALID,0,VALID,24.2857,VALID,352,VALID,0.412891,
2008-11-21, 01:36:04,VALID,1001.28,VALID,0,VALID,95.6814,VALID,0,VALID,24.3246,VALID,352,VALID,0.366406,
2008-11-21, 01:37:04,VALID,1001.3,VALID,0,VALID,95.6738,VALID,0,VALID,24.3265,VALID,352,VALID,0.358594,
2008-11-21, 01:38:04,VALID,1001.29,VALID,0,VALID,95.6814,VALID,0,VALID,24.3246,VALID,352,VALID,0.379297,
2008-11-21, 01:39:04,VALID,1001.26,VALID,0,VALID,95.6814,VALID,0,VALID,24.3459,VALID,352,VALID,0.294922,
2008-11-21, 01:40:04,VALID,1001.23,VALID,0,VALID,95.6967,VALID,0,VALID,24.3459,VALID,352,VALID,0.230078,
2008-11-21, 01:41:04,VALID,1001.19,VALID,0,VALID,95.689,VALID,0,VALID,24.3654,VALID,352,VALID,0.212109,
2008-11-21, 01:42:04,VALID,1001.19,VALID,0,VALID,95.689,VALID,0,VALID,24.3849,VALID,352,VALID,0.381641,
2008-11-21, 01:43:04,VALID,1001.17,VALID,0,VALID,95.7272,VALID,0,VALID,24.4433,VALID,351,VALID,0.484766,
2008-11-21, 01:44:04,VALID,1001.14,VALID,0,VALID,95.7424,VALID,0,VALID,24.4628,VALID,351,VALID,0.217969,
2008-11-21, 01:45:04,VALID,1001.15,VALID,0,VALID,95.6967,VALID,0,VALID,24.5017,VALID,351,VALID,0.214844,
2008-11-21, 01:46:04,VALID,1001.13,VALID,0,VALID,95.6814,VALID,0,VALID,24.5406,VALID,353,VALID,0.408203,
2008-11-21, 01:47:04,VALID,1001.09,VALID,0,VALID,95.6509,VALID,0,VALID,24.5601,VALID,10,VALID,0.811719,
2008-11-21, 01:48:04,VALID,1001.09,VALID,0,VALID,95.6509,VALID,0,VALID,24.5796,VALID,24,VALID,0.600391,
2008-11-21, 01:49:04,VALID,1001.05,VALID,0,VALID,95.6814,VALID,0,VALID,24.6574,VALID,13,VALID,0.717188,
2008-11-21, 01:50:04,VALID,1001.03,VALID,0,VALID,95.5975,VALID,0,VALID,24.7159,VALID,36,VALID,0.330078,
2008-11-21, 01:51:04,VALID,1001.03,VALID,0,VALID,95.4983,VALID,0,VALID,24.7353,VALID,36,VALID,0.110937,
2008-11-21, 01:52:04,VALID,1001,VALID,0,VALID,95.3991,VALID,0,VALID,24.7335,VALID,36,VALID,0.181641,
2008-11-21, 01:53:04,VALID,1001,VALID,0,VALID,95.3381,VALID,0,VALID,24.7548,VALID,36,VALID,0.375,
2008-11-21, 01:54:04,VALID,1000.95,VALID,0,VALID,95.3076,VALID,0,VALID,24.8151,VALID,36,VALID,0.388281,
2008-11-21, 01:55:04,VALID,1000.96,VALID,0,VALID,95.2923,VALID,0,VALID,24.7743,VALID,36,VALID,0.330078,
2008-11-21, 01:56:04,VALID,1000.95,VALID,0,VALID,95.2313,VALID,0,VALID,24.7724,VALID,36,VALID,0,
2008-11-21, 01:57:04,VALID,1000.96,VALID,0,VALID,95.155,VALID,0,VALID,24.8132,VALID,36,VALID,0,
2008-11-21, 01:58:04,VALID,1000.94,VALID,0,VALID,95.0482,VALID,0,VALID,24.7743,VALID,30,VALID,0.334375,
2008-11-21, 01:59:04,VALID,1000.97,VALID,0,VALID,94.9719,VALID,0,VALID,24.7548,VALID,15,VALID,0.348828,
2008-11-21, 02:00:04,VALID,1000.95,VALID,0,VALID,94.9033,VALID,0,VALID,24.7159,VALID,13,VALID,0.0953125,
2008-11-21, 02:01:04,VALID,1000.98,VALID,0,VALID,94.888,VALID,0,VALID,24.7159,VALID,13,VALID,0.0796875,
2008-11-21, 02:02:04,VALID,1000.96,VALID,0,VALID,94.8956,VALID,0,VALID,24.6769,VALID,13,VALID,0,
2008-11-21, 02:03:04,VALID,1000.95,VALID,0,VALID,94.8956,VALID,0,VALID,24.6769,VALID,13,VALID,0,
2008-11-21, 02:04:04,VALID,1000.97,VALID,0,VALID,94.8804,VALID,0,VALID,24.638,VALID,13,VALID,0,
2008-11-21, 02:05:04,VALID,1000.96,VALID,0,VALID,94.9109,VALID,0,VALID,24.638,VALID,13,VALID,0,
2008-11-21, 02:06:04,VALID,1000.97,VALID,0,VALID,94.9414,VALID,0,VALID,24.6185,VALID,13,VALID,0.0515625,
2008-11-21, 02:07:04,VALID,1000.96,VALID,0,VALID,94.9948,VALID,0,VALID,24.6185,VALID,13,VALID,0.166016,
2008-11-21, 02:08:04,VALID,1000.95,VALID,0,VALID,95.0024,VALID,0,VALID,24.599,VALID,13,VALID,0.119531,
2008-11-21, 02:09:04,VALID,1000.92,VALID,0,VALID,94.9948,VALID,0,VALID,24.5796,VALID,13,VALID,0.0257812,
2008-11-21, 02:10:04,VALID,1000.9,VALID,0,VALID,95.0253,VALID,0,VALID,24.5601,VALID,13,VALID,0,
2008-11-21, 02:11:04,VALID,1000.9,VALID,0,VALID,95.0253,VALID,0,VALID,24.5601,VALID,13,VALID,0,
2008-11-21, 02:12:04,VALID,1000.87,VALID,0,VALID,95.033,VALID,0,VALID,24.5406,VALID,13,VALID,0,
2008-11-21, 02:13:04,VALID,1000.85,VALID,0,VALID,95.0253,VALID,0,VALID,24.5212,VALID,13,VALID,0,
2008-11-21, 02:14:04,VALID,1000.85,VALID,0,VALID,95.0482,VALID,0,VALID,24.5017,VALID,13,VALID,0,
2008-11-21, 02:15:04,VALID,1000.86,VALID,0,VALID,95.0482,VALID,0,VALID,24.4609,VALID,13,VALID,0,
2008-11-21, 02:16:04,VALID,1000.89,VALID,0,VALID,95.0482,VALID,0,VALID,24.4433,VALID,13,VALID,0,
2008-11-21, 02:17:04,VALID,1000.91,VALID,0,VALID,95.0864,VALID,0,VALID,24.422,VALID,13,VALID,0,
2008-11-21, 02:18:04,VALID,1000.96,VALID,0,VALID,95.094,VALID,0,VALID,24.4238,VALID,13,VALID,0,
2008-11-21, 02:19:04,VALID,1000.94,VALID,0,VALID,95.1093,VALID,0,VALID,24.4043,VALID,13,VALID,0,
2008-11-21, 02:20:04,VALID,1000.97,VALID,0,VALID,95.1779,VALID,0,VALID,24.4043,VALID,13,VALID,0,
2008-11-21, 02:21:04,VALID,1000.94,VALID,0,VALID,95.1855,VALID,0,VALID,24.4043,VALID,12,VALID,0.335938,
2008-11-21, 02:22:04,VALID,1000.92,VALID,0,VALID,95.1627,VALID,0,VALID,24.4043,VALID,11,VALID,0.357812,
2008-11-21, 02:23:04,VALID,1000.91,VALID,0,VALID,95.1474,VALID,0,VALID,24.3654,VALID,11,VALID,0.360547,
2008-11-21, 02:24:04,VALID,1000.9,VALID,0,VALID,95.155,VALID,0,VALID,24.3441,VALID,11,VALID,0.55625,
2008-11-21, 02:25:04,VALID,1000.91,VALID,0,VALID,95.1932,VALID,0,VALID,24.3459,VALID,11,VALID,0.358594,
2008-11-21, 02:26:04,VALID,1000.89,VALID,0,VALID,95.2084,VALID,0,VALID,24.3459,VALID,11,VALID,0.360938,
2008-11-21, 02:27:04,VALID,1000.86,VALID,0,VALID,95.2389,VALID,0,VALID,24.3459,VALID,11,VALID,0.439453,
2008-11-21, 02:28:04,VALID,1000.89,VALID,0,VALID,95.2695,VALID,0,VALID,24.3459,VALID,5,VALID,0.746875,
2008-11-21, 02:29:04,VALID,1000.88,VALID,0,VALID,95.2847,VALID,0,VALID,24.3265,VALID,2,VALID,0.223828,
2008-11-21, 02:30:04,VALID,1000.88,VALID,0,VALID,95.3076,VALID,0,VALID,24.3265,VALID,2,VALID,0.0429688,
2008-11-21, 02:31:04,VALID,1000.85,VALID,0,VALID,95.3381,VALID,0,VALID,24.3459,VALID,346,VALID,0.217578,
2008-11-21, 02:32:04,VALID,1000.84,VALID,0,VALID,95.3686,VALID,0.100563,VALID,24.3654,VALID,329,VALID,0.0972656,
2008-11-21, 02:33:04,VALID,1000.85,VALID,0,VALID,95.3534,VALID,0,VALID,24.3441,VALID,329,VALID,0.0617188,
2008-11-21, 02:34:04,VALID,1000.86,VALID,0,VALID,95.361,VALID,0,VALID,24.3849,VALID,347,VALID,0.489844,
2008-11-21, 02:35:04,VALID,1000.88,VALID,0,VALID,95.361,VALID,0,VALID,24.3441,VALID,347,VALID,0.0285156,
2008-11-21, 02:36:04,VALID,1000.92,VALID,0,VALID,95.3,VALID,0,VALID,24.3636,VALID,347,VALID,0.456641,
2008-11-21, 02:37:04,VALID,1000.91,VALID,0,VALID,95.2923,VALID,0,VALID,24.3459,VALID,302,VALID,0.355078,
2008-11-21, 02:38:04,VALID,1000.93,VALID,0,VALID,95.2847,VALID,0,VALID,24.3246,VALID,301,VALID,0,
2008-11-21, 02:39:04,VALID,1000.96,VALID,0,VALID,95.2618,VALID,0,VALID,24.3673,VALID,301,VALID,0.249609,
2008-11-21, 02:40:04,VALID,1000.98,VALID,0,VALID,95.2771,VALID,0,VALID,24.3265,VALID,302,VALID,0.0722656,
2008-11-21, 02:41:04,VALID,1001,VALID,0,VALID,95.2542,VALID,0,VALID,24.307,VALID,303,VALID,0,
2008-11-21, 02:42:04,VALID,1001.03,VALID,0,VALID,95.2466,VALID,0,VALID,24.307,VALID,303,VALID,0.00195313,
2008-11-21, 02:43:04,VALID,1001.05,VALID,0,VALID,95.2313,VALID,0,VALID,24.2857,VALID,335,VALID,0.550391,
2008-11-21, 02:44:04,VALID,1001.06,VALID,0,VALID,95.2161,VALID,0,VALID,24.2857,VALID,348,VALID,0.615234,
2008-11-21, 02:45:04,VALID,1001.09,VALID,0,VALID,95.2008,VALID,0,VALID,24.2875,VALID,349,VALID,0.566016,
2008-11-21, 02:46:04,VALID,1001.08,VALID,0,VALID,95.2008,VALID,0,VALID,24.2875,VALID,351,VALID,0.497266,
2008-11-21, 02:47:04,VALID,1001.09,VALID,0,VALID,95.1932,VALID,0,VALID,24.2468,VALID,344,VALID,0.54375,
2008-11-21, 02:48:04,VALID,1001.14,VALID,0,VALID,95.2237,VALID,0,VALID,24.2468,VALID,344,VALID,0.451953,
2008-11-21, 02:49:04,VALID,1001.11,VALID,0,VALID,95.2161,VALID,0,VALID,24.2486,VALID,346,VALID,0.440234,
2008-11-21, 02:50:04,VALID,1001.14,VALID,0,VALID,95.2237,VALID,0,VALID,24.2273,VALID,348,VALID,0.609766,
2008-11-21, 02:51:04,VALID,1001.13,VALID,0,VALID,95.2466,VALID,0,VALID,24.2291,VALID,349,VALID,0.319141,
2008-11-21, 02:52:04,VALID,1001.13,VALID,0,VALID,95.2695,VALID,0,VALID,24.2291,VALID,349,VALID,0.378906,
2008-11-21, 02:53:04,VALID,1001.15,VALID,0,VALID,95.2618,VALID,0,VALID,24.2078,VALID,349,VALID,0.355469,
2008-11-21, 02:54:04,VALID,1001.15,VALID,0,VALID,95.3,VALID,0,VALID,24.2486,VALID,349,VALID,0.294922,
2008-11-21, 02:55:04,VALID,1001.15,VALID,0,VALID,95.3229,VALID,0,VALID,24.2486,VALID,349,VALID,0.00234375,
2008-11-21, 02:56:04,VALID,1001.16,VALID,0,VALID,95.3381,VALID,0,VALID,24.2273,VALID,349,VALID,0.0671875,
2008-11-21, 02:57:04,VALID,1001.16,VALID,0,VALID,95.3534,VALID,0,VALID,24.2486,VALID,349,VALID,0.460938,
2008-11-21, 02:58:04,VALID,1001.13,VALID,0,VALID,95.4068,VALID,0,VALID,24.2681,VALID,350,VALID,0.467187,
2008-11-21, 02:59:04,VALID,1001.17,VALID,0,VALID,95.3839,VALID,0,VALID,24.2875,VALID,350,VALID,0.539063,
2008-11-21, 03:00:04,VALID,1001.19,VALID,0,VALID,95.3839,VALID,0,VALID,24.2875,VALID,352,VALID,0.347266,
2008-11-21, 03:01:04,VALID,1001.19,VALID,0,VALID,95.3763,VALID,0,VALID,24.307,VALID,352,VALID,0.40625,
2008-11-21, 03:02:04,VALID,1001.19,VALID,0,VALID,95.3686,VALID,0,VALID,24.2875,VALID,352,VALID,0.289063,
2008-11-21, 03:03:04,VALID,1001.22,VALID,0,VALID,95.3381,VALID,0,VALID,24.2681,VALID,352,VALID,0.262109,
2008-11-21, 03:04:04,VALID,1001.22,VALID,0,VALID,95.3305,VALID,0,VALID,24.2681,VALID,352,VALID,0.249609,
2008-11-21, 03:05:04,VALID,1001.22,VALID,0,VALID,95.3534,VALID,0,VALID,24.2681,VALID,352,VALID,0.292969,
2008-11-21, 03:06:04,VALID,1001.23,VALID,0,VALID,95.3457,VALID,0,VALID,24.2486,VALID,352,VALID,0.210156,
2008-11-21, 03:07:04,VALID,1001.25,VALID,0,VALID,95.3457,VALID,0,VALID,24.2078,VALID,352,VALID,0.273047,
2008-11-21, 03:08:04,VALID,1001.29,VALID,0,VALID,95.3229,VALID,0,VALID,24.1884,VALID,352,VALID,0.349219,
2008-11-21, 03:09:04,VALID,1001.26,VALID,0,VALID,95.3305,VALID,0.100563,VALID,24.1884,VALID,352,VALID,0.199609,
2008-11-21, 03:10:04,VALID,1001.28,VALID,0,VALID,95.3763,VALID,0.100563,VALID,24.1902,VALID,352,VALID,0.172266,
2008-11-21, 03:11:04,VALID,1001.27,VALID,0,VALID,95.4068,VALID,0,VALID,24.2097,VALID,352,VALID,0.0636719,
2008-11-21, 03:12:04,VALID,1001.26,VALID,0,VALID,95.5136,VALID,0,VALID,24.2291,VALID,352,VALID,0,
2008-11-21, 03:13:04,VALID,1001.25,VALID,0,VALID,95.506,VALID,0,VALID,24.2486,VALID,352,VALID,0.314453,
2008-11-21, 03:14:04,VALID,1001.24,VALID,0,VALID,95.4754,VALID,0.100563,VALID,24.2486,VALID,352,VALID,0.232422,
2008-11-21, 03:15:04,VALID,1001.22,VALID,0,VALID,95.506,VALID,0.100563,VALID,24.2681,VALID,352,VALID,0.355078,
2008-11-21, 03:16:04,VALID,1001.22,VALID,0,VALID,95.4831,VALID,0,VALID,24.2681,VALID,352,VALID,0.277734,
2008-11-21, 03:17:04,VALID,1001.22,VALID,0,VALID,95.4144,VALID,0,VALID,24.2273,VALID,352,VALID,0.199219,
2008-11-21, 03:18:04,VALID,1001.25,VALID,0,VALID,95.4373,VALID,0,VALID,24.2291,VALID,352,VALID,0.102734,
2008-11-21, 03:19:04,VALID,1001.24,VALID,0,VALID,95.422,VALID,0,VALID,24.2291,VALID,352,VALID,0.207422,
2008-11-21, 03:20:04,VALID,1001.25,VALID,0,VALID,95.4297,VALID,0,VALID,24.2291,VALID,352,VALID,0.269922,
2008-11-21, 03:21:04,VALID,1001.25,VALID,0,VALID,95.4373,VALID,0,VALID,24.231,VALID,352,VALID,0.300781,
2008-11-21, 03:22:04,VALID,1001.28,VALID,0,VALID,95.4526,VALID,0,VALID,24.2291,VALID,352,VALID,0.244922,
2008-11-21, 03:23:04,VALID,1001.28,VALID,0,VALID,95.4831,VALID,0,VALID,24.2097,VALID,352,VALID,0.444531,
2008-11-21, 03:24:04,VALID,1001.28,VALID,0,VALID,95.4907,VALID,0,VALID,24.2291,VALID,352,VALID,0.448047,
2008-11-21, 03:25:04,VALID,1001.27,VALID,0,VALID,95.5517,VALID,0,VALID,24.2486,VALID,352,VALID,0.365625,
2008-11-21, 03:26:04,VALID,1001.27,VALID,0,VALID,95.5365,VALID,0,VALID,24.2486,VALID,352,VALID,0.416016,
2008-11-21, 03:27:04,VALID,1001.27,VALID,0,VALID,95.5899,VALID,0,VALID,24.2681,VALID,352,VALID,0.529688,
2008-11-21, 03:28:04,VALID,1001.26,VALID,0,VALID,95.5441,VALID,0,VALID,24.2681,VALID,352,VALID,0.528516,
2008-11-21, 03:29:04,VALID,1001.23,VALID,0,VALID,95.5365,VALID,0,VALID,24.2681,VALID,353,VALID,0.507813,
2008-11-21, 03:30:04,VALID,1001.2,VALID,0,VALID,95.4907,VALID,0,VALID,24.2486,VALID,353,VALID,0.506641,
2008-11-21, 03:31:04,VALID,1001.19,VALID,0,VALID,95.4983,VALID,0,VALID,24.2681,VALID,353,VALID,0.467969,
2008-11-21, 03:32:04,VALID,1001.16,VALID,0,VALID,95.5288,VALID,0,VALID,24.2894,VALID,353,VALID,0.38125,
2008-11-21, 03:33:04,VALID,1001.13,VALID,0,VALID,95.506,VALID,0,VALID,24.2699,VALID,353,VALID,0.357422,
2008-11-21, 03:34:04,VALID,1001.11,VALID,0,VALID,95.4907,VALID,0,VALID,24.2486,VALID,353,VALID,0.347656,
2008-11-21, 03:35:04,VALID,1001.12,VALID,0,VALID,95.4983,VALID,0,VALID,24.2699,VALID,353,VALID,0.401953,
2008-11-21, 03:36:04,VALID,1001.09,VALID,0,VALID,95.506,VALID,0,VALID,24.2291,VALID,353,VALID,0.305859,
2008-11-21, 03:37:04,VALID,1001.1,VALID,0,VALID,95.4983,VALID,0,VALID,24.2291,VALID,353,VALID,0.275781,
2008-11-21, 03:38:04,VALID,1001.12,VALID,0,VALID,95.5365,VALID,0,VALID,24.2291,VALID,353,VALID,0.233594,
2008-11-21, 03:39:04,VALID,1001.11,VALID,0,VALID,95.5365,VALID,0,VALID,24.2486,VALID,353,VALID,0.144922,
2008-11-21, 03:40:04,VALID,1001.1,VALID,0,VALID,95.5365,VALID,0,VALID,24.2291,VALID,353,VALID,0,
2008-11-21, 03:41:04,VALID,1001.11,VALID,0,VALID,95.5441,VALID,0,VALID,24.2486,VALID,353,VALID,0,
2008-11-21, 03:42:04,VALID,1001.1,VALID,0,VALID,95.5365,VALID,0,VALID,24.2504,VALID,353,VALID,0,
2008-11-21, 03:43:04,VALID,1001.08,VALID,0,VALID,95.567,VALID,0,VALID,24.2486,VALID,353,VALID,0,
2008-11-21, 03:44:04,VALID,1001.09,VALID,0,VALID,95.5746,VALID,0,VALID,24.2273,VALID,353,VALID,0,
2008-11-21, 03:45:04,VALID,1001.07,VALID,0,VALID,95.5822,VALID,0,VALID,24.2486,VALID,353,VALID,0,
2008-11-21, 03:46:04,VALID,1001.06,VALID,0,VALID,95.5822,VALID,0,VALID,24.2486,VALID,353,VALID,0,
2008-11-21, 03:47:04,VALID,1001.05,VALID,0,VALID,95.6051,VALID,0,VALID,24.2468,VALID,353,VALID,0,
2008-11-21, 03:48:04,VALID,1001.04,VALID,0,VALID,95.5975,VALID,0,VALID,24.2486,VALID,353,VALID,0,